Strait of Georgia - north of Nanaimo: Past 24 Hour Conditions

 

Saturna Island

02:00 PM PDT 30 September 2014
This table is a summary of hourly weather conditions for the past 24 hours.
Date / Time
(PDT)
Wind(knots) Conditions Visibility(km) Pressure(kPa) Air tempC) Relative humidity(%) Dew pointC)
30 September 2014
14:00 SE 6 N/A N/A 101.8 16 67 10
13:00 SSE 7 N/A N/A 101.8 15 68 9
12:00 SW 5 N/A N/A 101.8 16 59 8
11:00 SW 5 N/A N/A 101.8 16 63 9
10:00 WSW 9 N/A N/A 101.7 14 73 9
9:00 WSW 10 N/A N/A 101.7 13 78 10
8:00 WSW 9 N/A N/A 101.6 12 83 9
7:00 WSW 8 N/A N/A 101.6 12 80 9
6:00 WSW 8 N/A N/A 101.5 12 82 9
5:00 WSW 9 N/A N/A 101.5 13 75 8
4:00 W 8 N/A N/A 101.5 13 75 8
3:00 WSW 9 N/A N/A 101.4 13 76 9
2:00 W 8 N/A N/A 101.4 13 77 9
1:00 WSW 10 N/A N/A 101.4 13 77 9
0:00 WSW 9 N/A N/A 101.3 13 81 10
29 September 2014
23:00 WSW 11 N/A N/A 101.3 13 84 10
22:00 WSW 7 N/A N/A 101.3 13 88 11
21:00 W 4 N/A N/A 101.2 14 86 11
20:00 W 2 N/A N/A 101.1 14 82 11
19:00 SW 4 N/A N/A 101.0 12 88 11
18:00 SW 12 N/A N/A 101.0 13 89 11
17:00 SSW 14 N/A N/A 101.0 14 85 11
16:00 SW 16 N/A N/A 101.1 15 84 12
15:00 SSW 20 N/A N/A 101.0 13 87 11
14:00 SW 13 N/A N/A 101.0 14 87 12
 
Map of Pacific - Georgia Basin marine weather areas Tsawwassen Ferry Terminal Sentry Shoal - 46131 Halibut Bank - 46146 La Perouse Bank - 46206 Discovery Island Esquimalt Harbour Kelp Reefs Malahat Race Rocks Lightstation Saturna Island Sheringham Point University of Victoria Victoria Gonzales Victoria Int'l Airport Ballenas Islands Campbell River Airport Comox Airport Entrance Island Fanny Island Nanaimo Airport Sisters Islets Estevan Point Tofino Airport Grief Point Powell River Airport Sechelt Point Atkinson Sand Heads Lightstation Vancouver Harbour Vancouver Int'l Airport West Vancouver Port Alberni Howe Sound - Pam Rocks Squamish Airport